Terminal Aerodrome Forecast
Issued by NWS Corpus Christi, TX

Home | Current Version | Previous Version | Text Only | Print | Product List | Glossary On
Versions: 1 2 3 4 5 6 7 8 9 10 11 12
384
FTUS44 KCRP 252340
TAFVCT
TAF
KVCT 252340Z 2600/2624 16020G30KT P6SM BKN025
     FM260200 16015G23KT P6SM BKN012
     FM260900 18014KT P6SM OVC009
     FM261500 24018G25KT P6SM SKC=

USA.gov is the U.S. government's official web portal to all federal, state and local government web resources and services.